EW8287 Weather Reports


time (UTC)temp
F
wind
direction
speed
knots
gust
knots
rain 1hr
in
rain 24hr
in
rain mn
in
humidity
%
barometer
mb
20260507105705 37 170 0.0 1.7 0.00 0.04 0.00 91 1016.6
20260507105204 38 170 1.7 2.6 0.00 0.04 0.00 91 1016.6
20260507104704 38 170 1.7 2.6 0.00 0.04 0.00 91 1016.6
20260507104204 38 170 0.0 2.6 0.00 0.04 0.00 91 1016.6
20260507103704 38 152 1.7 2.6 0.00 0.04 0.00 91 1016.6
20260507103204 38 154 1.7 4.3 0.00 0.04 0.00 91 1016.6
20260507102704 38 161 1.7 4.3 0.00 0.04 0.00 91 1016.6
20260507102204 38 155 1.7 2.6 0.00 0.04 0.00 91 1016.6
20260507101704 38 155 0.9 2.6 0.00 0.04 0.00 91 1016.6
20260507101204 38 155 0.9 4.3 0.00 0.04 0.00 91 1016.5
20260507100704 38 146 0.9 2.6 0.00 0.04 0.00 91 1016.5
20260507100204 38 144 0.9 2.6 0.00 0.04 0.00 90 1016.5
20260507095704 38 146 0.9 2.6 0.00 0.04 0.00 90 1016.5
20260507095204 38 157 1.7 4.3 0.00 0.04 0.00 90 1016.4
20260507094704 38 155 1.7 2.6 0.00 0.04 0.00 91 1016.4
20260507094204 38 155 0.9 2.6 0.00 0.04 0.00 90 1016.3
20260507093704 38 148 0.9 2.6 0.00 0.04 0.00 90 1016.4
20260507093205 38 145 1.7 5.2 0.00 0.04 0.00 90 1016.3
20260507092704 38 146 0.9 2.6 0.00 0.04 0.00 90 1016.4
20260507092204 38 155 4.3 10.4 0.00 0.04 0.00 90 1016.3
20260507091704 38 142 2.6 6.1 0.00 0.04 0.00 90 1016.3
20260507091204 38 146 1.7 6.1 0.00 0.04 0.00 90 1016.3
20260507090704 38 142 1.7 5.2 0.00 0.04 0.00 90 1016.4
20260507090205 39 153 1.7 8.7 0.00 0.04 0.00 90 1016.3
20260507085704 38 160 1.7 7.0 0.00 0.04 0.00 91 1016.2
20260507085204 38 144 1.7 4.3 0.00 0.04 0.00 91 1016.1
20260507084704 39 158 0.9 4.3 0.00 0.04 0.00 91 1016.1
20260507084204 39 163 1.7 4.3 0.00 0.04 0.00 91 1016.0
20260507083205 39 161 1.7 4.3 0.00 0.04 0.00 91 1015.9
20260507082704 38 165 1.7 2.6 0.00 0.04 0.00 92 1015.8
20260507082201 38 171 1.7 5.2 0.00 0.04 0.00 92 1015.8
20260507081702 38 162 1.7 5.2 0.00 0.04 0.00 92 1015.7
20260507081201 38 150 0.9 4.3 0.00 0.04 0.00 92 1015.6
20260507080708 38 174 0.0 1.7 0.00 0.04 0.00 92 1015.6
20260507075702 38 174 0.9 2.6 0.00 0.04 0.04 92 1015.6
20260507075202 38 174 0.0 2.6 0.00 0.04 0.04 92 1015.6
20260507074701 38 174 0.9 1.7 0.00 0.04 0.04 92 1015.6
20260507074202 38 174 0.9 4.3 0.00 0.04 0.04 92 1015.5
20260507073702 38 159 0.9 2.6 0.00 0.04 0.04 92 1015.5
20260507073201 38 159 0.9 1.7 0.00 0.04 0.04 92 1015.4
20260507072701 38 160 1.7 4.3 0.00 0.04 0.04 92 1015.4
20260507072202 39 160 0.9 1.7 0.00 0.04 0.04 92 1015.4
20260507071202 39 157 0.9 2.6 0.00 0.04 0.04 92 1015.3
20260507070702 39 150 0.9 2.6 0.00 0.04 0.04 92 1015.3
20260507070202 39 152 0.9 5.2 0.00 0.04 0.04 92 1015.2
20260507065701 39 167 1.7 2.6 0.00 0.04 0.04 91 1015.2
20260507065201 39 158 0.9 2.6 0.00 0.04 0.04 92 1015.1
20260507064702 39 158 0.9 4.3 0.00 0.04 0.04 91 1015.1
20260507064202 39 157 0.9 2.6 0.00 0.04 0.04 92 1015.0
20260507063702 39 157 0.9 2.6 0.00 0.04 0.04 91 1015.0
20260507063202 39 157 0.9 1.7 0.00 0.04 0.04 92 1014.9
20260507061702 39 157 0.0 1.7 0.00 0.04 0.04 92 1014.7
20260507061202 39 157 0.9 2.6 0.00 0.04 0.04 92 1014.7
20260507060702 40 157 0.9 2.6 0.00 0.04 0.04 92 1014.7
20260507060202 40 157 0.9 2.6 0.00 0.04 0.04 92 1014.6
20260507055701 40 157 0.0 1.7 0.00 0.04 0.04 92 1014.6
20260507055203 40 157 0.9 1.7 0.00 0.04 0.04 92 1014.5
20260507053702 40 157 0.9 2.6 0.00 0.04 0.04 92 1014.4
20260507053201 40 157 0.0 2.6 0.00 0.04 0.04 91 1014.4
20260507052202 40 157 0.0 2.6 0.00 0.04 0.04 91 1014.4
20260507051702 40 157 0.9 2.6 0.00 0.04 0.04 90 1014.3
20260507051202 40 157 0.9 4.3 0.00 0.04 0.04 90 1014.3
20260507050702 40 149 0.9 2.6 0.00 0.04 0.04 90 1014.3
20260507050202 41 150 0.9 2.6 0.01 0.04 0.04 90 1014.1
20260507045702 41 164 0.9 7.0 0.01 0.04 0.04 90 1014.1
20260507045203 41 155 2.6 5.2 0.01 0.04 0.04 90 1014.1
20260507044702 41 166 1.7 2.6 0.01 0.04 0.04 89 1014.1
20260507043702 41 160 0.9 6.1 0.01 0.04 0.04 89 1014.0
20260507043202 42 162 2.6 5.2 0.01 0.04 0.04 89 1014.0
20260507042702 42 143 1.7 4.3 0.01 0.04 0.04 89 1014.0
20260507042202 42 159 1.7 5.2 0.01 0.04 0.04 88 1013.9
20260507041202 42 153 1.7 7.0 0.01 0.04 0.04 87 1013.9
20260507040702 43 144 1.7 10.4 0.01 0.04 0.04 87 1013.9
20260507040202 43 146 2.6 5.2 0.00 0.03 0.03 86 1013.8
20260507035702 43 163 3.5 6.1 0.00 0.03 0.03 87 1013.8
20260507035203 43 157 1.7 5.2 0.00 0.03 0.03 87 1013.7
20260507034202 43 176 1.7 4.3 0.01 0.03 0.03 89 1013.6
20260507033702 43 156 0.9 6.1 0.01 0.03 0.03 90 1013.6
20260507033202 43 157 1.7 2.6 0.01 0.03 0.03 91 1013.6
20260507032702 42 162 0.9 5.2 0.01 0.03 0.03 90 1013.6
20260507032203 42 146 0.9 2.6 0.01 0.03 0.03 90 1013.6
20260507031702 42 146 1.7 2.6 0.01 0.03 0.03 90 1013.6
20260507031202 42 146 0.9 2.6 0.01 0.03 0.03 89 1013.5
20260507030702 42 153 0.0 2.6 0.01 0.03 0.03 89 1013.5
20260507025202 43 153 0.9 4.3 0.01 0.03 0.03 86 1013.5
20260507024703 43 156 1.7 5.2 0.01 0.03 0.03 84 1013.5
20260507024202 43 171 2.6 4.3 0.00 0.02 0.02 84 1013.4
20260507023706 44 161 1.7 4.3 0.00 0.02 0.02 84 1013.4
20260507023203 44 142 0.0 2.6 0.00 0.02 0.02 84 1013.3
20260507022703 44 142 0.9 4.3 0.00 0.02 0.02 83 1013.3
20260507022202 44 171 1.7 4.3 0.00 0.02 0.02 83 1013.3
20260507021703 44 159 2.6 5.2 0.00 0.02 0.02 81 1013.3
20260507021203 44 177 4.3 10.4 0.00 0.02 0.02 80 1013.2
20260507020203 45 163 0.0 2.6 0.00 0.02 0.02 81 1013.2
20260507015703 45 161 1.7 7.0 0.00 0.02 0.02 81 1013.2
20260507015202 45 150 1.7 7.0 0.00 0.02 0.02 81 1013.2
20260507014703 45 160 2.6 5.2 0.00 0.02 0.02 80 1013.2
20260507014203 45 151 3.5 7.0 0.00 0.02 0.02 80 1013.1
20260507013702 45 155 2.6 5.2 0.00 0.02 0.02 80 1013.1
20260507013203 45 170 2.6 6.1 0.00 0.02 0.02 79 1013.1
20260507012702 45 163 1.7 4.3 0.00 0.02 0.02 79 1013.1
20260507012202 45 155 3.5 5.2 0.00 0.02 0.02 79 1013.1
20260507011702 45 163 1.7 6.1 0.00 0.02 0.02 80 1013.0
20260507011202 45 165 0.9 2.6 0.00 0.02 0.02 81 1013.1
20260507010703 45 133 1.7 5.2 0.00 0.02 0.02 81 1013.1
20260507005702 45 134 0.9 6.1 0.00 0.02 0.02 81 1013.1
20260507005203 45 148 0.9 4.3 0.00 0.02 0.02 80 1013.1
20260507004203 46 157 1.7 4.3 0.00 0.02 0.02 80 1013.0
20260507003703 46 164 1.7 5.2 0.00 0.02 0.02 79 1012.9
20260507003203 46 162 2.6 8.7 0.00 0.02 0.02 77 1013.0
20260507002703 47 160 0.9 8.7 0.00 0.02 0.02 75 1013.0
20260507002202 47 157 0.9 2.6 0.00 0.02 0.02 74 1012.9
20260507001203 47 144 0.9 5.2 0.00 0.02 0.02 71 1012.8
20260507000204 47 134 0.0 0.9 0.00 0.02 0.02 73 1012.8
20260506235203 47 126 0.9 2.6 0.00 0.02 0.02 74 1012.8
20260506234702 47 121 0.0 0.9 0.00 0.02 0.02 74 1012.8
20260506234203 47 121 0.0 0.9 0.00 0.02 0.02 74 1012.7
20260506233703 47 121 0.9 2.6 0.00 0.02 0.02 73 1012.7
20260506233202 47 164 0.9 2.6 0.00 0.02 0.02 73 1012.7
20260506232203 47 157 0.0 1.7 0.00 0.02 0.02 73 1012.6
20260506231202 47 157 0.0 1.7 0.00 0.02 0.02 73 1012.6
20260506225704 47 316 0.0 2.6 0.00 0.02 0.02 75 1012.5
20260506225203 47 113 0.0 1.7 0.00 0.02 0.02 76 1012.5
20260506224703 46 146 0.0 0.9 0.00 0.02 0.02 77 1012.5
20260506224202 46 146 3.5 7.8 0.00 0.02 0.02 75 1012.5
20260506223703 46 190 0.0 1.7 0.00 0.02 0.02 76 1012.5
20260506223203 46 184 0.9 4.3 0.00 0.02 0.02 75 1012.5
20260506222703 46 163 0.9 5.2 0.00 0.02 0.02 77 1012.4
20260506222203 46 271 0.0 2.6 0.00 0.02 0.02 79 1012.4
20260506220703 45 205 0.9 2.6 0.00 0.02 0.02 81 1012.4
20260506220203 45 265 0.0 1.7 0.00 0.02 0.02 81 1012.4
20260506215702 45 265 0.0 2.6 0.00 0.02 0.02 82 1012.4
20260506215202 45 131 0.0 2.6 0.00 0.02 0.02 80 1012.4
20260506214703 45 138 1.7 2.6 0.00 0.02 0.02 79 1012.3
20260506214204 45 163 0.0 1.7 0.00 0.02 0.02 81 1012.3
20260506213703 44 163 0.9 2.6 0.00 0.02 0.02 80 1012.3
20260506213203 44 162 1.7 6.1 0.00 0.02 0.02 81 1012.3
20260506212203 44 154 0.0 1.7 0.00 0.02 0.02 83 1012.2
20260506211703 44 154 0.0 0.9 0.00 0.02 0.02 83 1012.2
20260506211203 44 154 0.0 2.6 0.00 0.02 0.02 83 1012.1
20260506210703 44 154 0.0 2.6 0.01 0.02 0.02 83 1012.2
20260506205703 44 154 0.9 2.6 0.01 0.02 0.02 85 1012.1
20260506205203 43 154 1.7 6.1 0.01 0.02 0.02 85 1012.1
20260506204703 43 155 0.9 2.6 0.01 0.02 0.02 85 1012.1
20260506204203 43 155 0.9 2.6 0.01 0.02 0.02 86 1012.1
20260506203704 43 155 0.0 0.0 0.01 0.02 0.02 87 1012.1
20260506203203 43 155 0.0 0.0 0.02 0.02 0.02 86 1012.0
20260506202203 44 155 0.0 0.0 0.02 0.02 0.02 86 1011.9
20260506200703 44 155 0.0 0.9 0.01 0.01 0.01 86 1011.8
20260506195704 44 155 0.0 0.0 0.01 0.01 0.01 87 1011.7
20260506195203 44 155 0.0 0.9 0.01 0.01 0.01 87 1011.7
20260506194703 44 155 0.0 0.0 0.01 0.01 0.01 86 1011.6
20260506194202 43 155 0.0 0.0 0.01 0.01 0.01 85 1011.6
20260506193203 43 155 0.0 2.6 0.00 0.00 0.00 84 1011.6
20260506192704 43 155 0.0 1.7 0.00 0.00 0.00 84 1011.6
20260506192203 43 155 0.0 1.7 0.00 0.00 0.00 85 1011.6
20260506191704 43 155 0.9 2.6 0.00 0.00 0.00 85 1011.6
20260506190704 43 155 0.0 0.9 0.00 0.00 0.00 86 1011.5
20260506190203 43 155 0.0 1.7 0.00 0.00 0.00 85 1011.5
20260506185703 42 155 0.0 0.0 0.00 0.00 0.00 85 1011.4
20260506184703 42 155 0.0 0.0 0.00 0.00 0.00 85 1011.4
20260506184203 42 155 0.0 0.9 0.00 0.00 0.00 85 1011.4
20260506183704 42 155 0.0 0.0 0.00 0.00 0.00 85 1011.4
20260506183203 42 155 0.9 1.7 0.00 0.00 0.00 86 1011.3
20260506182706 42 155 0.0 0.0 0.00 0.00 0.00 86 1011.3
20260506182203 42 155 0.0 1.7 0.00 0.00 0.00 86 1011.3
20260506181703 42 155 0.0 0.0 0.00 0.00 0.00 86 1011.3
20260506181203 42 155 0.9 2.6 0.00 0.00 0.00 86 1011.2
20260506180703 42 155 0.0 1.7 0.00 0.00 0.00 86 1011.2
20260506180204 42 155 0.0 0.9 0.00 0.00 0.00 87 1011.2
20260506175703 42 155 0.0 0.9 0.00 0.00 0.00 87 1011.2
20260506175203 41 155 0.0 1.7 0.00 0.00 0.00 87 1011.2
20260506174703 41 155 0.0 1.7 0.00 0.00 0.00 87 1011.1
20260506173203 41 155 0.9 2.6 0.00 0.00 0.00 87 1011.1
20260506172703 41 155 0.0 2.6 0.00 0.00 0.00 87 1011.1
20260506172204 41 155 0.9 2.6 0.00 0.00 0.00 87 1011.1
20260506171204 41 156 0.9 2.6 0.00 0.00 0.00 88 1011.1
20260506170704 41 156 0.9 2.6 0.00 0.00 0.00 88 1011.0
20260506170204 41 156 0.0 2.6 0.00 0.00 0.00 88 1011.0
20260506165204 41 156 0.9 4.3 0.00 0.00 0.00 88 1011.0
20260506164204 41 156 0.9 4.3 0.00 0.00 0.00 88 1010.9
20260506163203 40 156 0.0 1.7 0.00 0.00 0.00 88 1010.8
20260506162704 40 156 1.7 4.3 0.00 0.00 0.00 88 1010.8
20260506162203 40 156 0.0 1.7 0.00 0.00 0.00 87 1010.8
20260506161703 40 156 0.9 2.6 0.00 0.00 0.00 88 1010.8
20260506161204 40 156 1.7 4.3 0.00 0.00 0.00 88 1010.7
20260506160703 40 155 0.0 0.0 0.00 0.00 0.00 89 1010.7
20260506160204 40 155 0.0 0.0 0.00 0.00 0.00 90 1010.6
20260506155204 40 155 0.9 2.6 0.00 0.00 0.00 90 1010.6
20260506154704 39 155 0.0 0.9 0.00 0.00 0.00 91 1010.6
20260506154204 39 155 0.0 1.7 0.00 0.00 0.00 91 1010.5
20260506153704 39 155 0.0 1.7 0.00 0.00 0.00 91 1010.6
20260506153204 39 155 0.0 0.9 0.00 0.00 0.00 91 1010.6
20260506152703 39 155 0.0 0.9 0.00 0.00 0.00 91 1010.7
20260506152203 39 155 0.0 0.0 0.00 0.00 0.00 92 1010.6
20260506151203 39 155 0.0 0.0 0.00 0.00 0.00 91 1010.6
20260506150703 39 155 0.0 0.0 0.00 0.00 0.00 92 1010.5
20260506150204 38 155 0.0 0.0 0.00 0.00 0.00 91 1010.5
20260506145203 38 155 0.0 0.0 0.00 0.00 0.00 91 1010.5
20260506144704 38 155 0.0 0.0 0.00 0.00 0.00 91 1010.4
20260506144204 38 155 0.0 0.0 0.00 0.00 0.00 91 1010.4
20260506143204 38 155 0.0 0.0 0.00 0.00 0.00 91 1010.4
20260506142704 38 155 0.0 0.0 0.00 0.00 0.00 91 1010.4
20260506142204 38 155 0.0 0.0 0.00 0.00 0.00 91 1010.4
20260506141204 38 155 0.0 0.0 0.00 0.00 0.00 90 1010.4
20260506140703 38 155 0.0 0.0 0.00 0.00 0.00 90 1010.4
20260506140204 38 155 0.0 0.0 0.00 0.00 0.00 90 1010.4
20260506135204 38 155 0.0 0.0 0.00 0.00 0.00 90 1010.3
20260506134704 38 155 0.0 0.0 0.00 0.00 0.00 90 1010.4
20260506134204 38 155 0.0 0.9 0.00 0.00 0.00 90 1010.4
20260506133704 38 155 0.0 0.9 0.00 0.00 0.00 90 1010.3
20260506133204 38 155 0.0 1.7 0.00 0.00 0.00 90 1010.3
20260506132204 38 155 0.0 1.7 0.00 0.00 0.00 90 1010.3
20260506131204 38 155 0.0 1.7 0.00 0.00 0.00 90 1010.2
20260506130704 38 155 0.9 5.2 0.00 0.00 0.00 90 1010.2
20260506130203 38 151 0.9 2.6 0.00 0.01 0.00 90 1010.3
20260506125703 38 155 0.0 1.7 0.00 0.01 0.00 90 1010.2
20260506125204 38 155 0.0 1.7 0.00 0.01 0.00 90 1010.1
20260506124704 38 155 0.0 1.7 0.00 0.01 0.00 90 1010.1
20260506124204 38 155 0.0 0.0 0.00 0.01 0.00 90 1010.1
20260506123704 38 155 0.0 1.7 0.00 0.01 0.00 90 1010.1
20260506123204 38 155 0.0 1.7 0.00 0.01 0.00 90 1010.1
20260506122704 38 155 0.0 0.9 0.00 0.01 0.00 90 1010.0
20260506122203 38 155 0.0 1.7 0.00 0.01 0.00 90 1010.0
20260506121704 38 155 0.0 0.9 0.00 0.01 0.00 90 1010.0
20260506121204 38 155 0.0 1.7 0.00 0.01 0.00 90 1009.9
20260506120704 38 155 0.0 1.7 0.00 0.01 0.00 90 1009.9
20260506120204 38 155 0.0 1.7 0.00 0.01 0.00 89 1009.9
20260506115703 38 155 0.0 0.0 0.00 0.01 0.00 89 1009.9
20260506115204 38 155 0.0 0.9 0.00 0.01 0.00 89 1009.8
20260506114204 38 155 0.0 1.7 0.00 0.01 0.00 89 1009.8
20260506113704 38 155 0.0 1.7 0.00 0.01 0.00 88 1009.8
20260506113204 38 155 0.0 1.7 0.00 0.01 0.00 88 1009.8
20260506112704 38 155 0.0 1.7 0.00 0.01 0.00 88 1009.8
20260506112204 38 155 0.9 2.6 0.00 0.01 0.00 87 1009.7
20260506111704 39 155 0.9 2.6 0.00 0.01 0.00 87 1009.8
20260506111204 39 155 0.9 1.7 0.00 0.01 0.00 86 1009.7
20260506110704 39 155 0.0 0.9 0.00 0.01 0.00 86 1009.7
20260506110204 39 155 0.0 1.7 0.00 0.01 0.00 85 1009.6